This is the latest recevied weather packets stored in our database for station/object W4BOD. If no packets are shown the sender has not sent any weather packets the latest 10 day(s).
| Time | Temp. | Humidity | Pressure | Rain* | Wind** | Luminosity | Snow |
|---|---|---|---|---|---|---|---|
| 1777816412 | 10.56° C | 85% | 1022.4 hPa | 0 mm | - | 102 W/m² | - |
| 1777816110 | 10° C | 86% | 1022.2 hPa | 0 mm | - | 66 W/m² | - |
| 1777815807 | 10.56° C | 86% | 1022.1 hPa | 0 mm | - | 59 W/m² | - |
| 1777815505 | 10° C | 86% | 1022.4 hPa | 0 mm | - | 76 W/m² | - |
| 1777815202 | 10° C | 86% | 1022.3 hPa | 0 mm | - | 56 W/m² | - |
| 1777814898 | 10° C | 88% | 1022.3 hPa | 0 mm | - | 54 W/m² | - |
| 1777814595 | 9.44° C | 86% | 1022.1 hPa | 0 mm | - | 60 W/m² | - |
| 1777814292 | 9.44° C | 89% | 1022.3 hPa | 0 mm | - | 54 W/m² | - |
| 1777813988 | 9.44° C | 92% | 1022 hPa | 0 mm | - | 50 W/m² | - |
| 1777813686 | 8.89° C | 96% | 1022.2 hPa | 0 mm | - | 49 W/m² | - |
| 1777813383 | 8.89° C | 98% | 1022.2 hPa | 0 mm | - | 49 W/m² | - |
| 1777813081 | 8.89° C | 99% | 1022.3 hPa | 0 mm | - | 49 W/m² | - |
| 1777812778 | 8.33° C | 99% | 1022.1 hPa | 0 mm | - | 47 W/m² | - |
| 1777812474 | 7.78° C | 99% | 1022.1 hPa | 0 mm | - | 47 W/m² | - |
| 1777812172 | 7.78° C | 99% | 1022.2 hPa | 0 mm | - | 45 W/m² | - |
| 1777811870 | 7.78° C | 99% | 1022 hPa | 0 mm | - | 44 W/m² | - |
| 1777811569 | 7.78° C | 99% | 1021.9 hPa | 0 mm | - | 43 W/m² | - |
| 1777811264 | 7.78° C | 99% | 1021.9 hPa | 0 mm | - | 42 W/m² | - |
| 1777810961 | 7.78° C | 99% | 1021.7 hPa | 0 mm | - | 41 W/m² | - |
| 1777810658 | 7.22° C | 99% | 1021.8 hPa | 0 mm | - | 39 W/m² | - |
| 1777810355 | 7.22° C | 99% | 1022 hPa | 0 mm | - | 38 W/m² | - |
| 1777810051 | 7.22° C | 99% | 1021.9 hPa | 0 mm | - | 37 W/m² | - |
| 1777809749 | 7.22° C | 99% | 1021.9 hPa | 0 mm | - | 34 W/m² | - |
| 1777809446 | 7.22° C | 99% | 1021.8 hPa | 0 mm | - | 34 W/m² | - |
| 1777809144 | 7.22° C | 99% | 1021.8 hPa | 0 mm | - | 43 W/m² | - |
* Rain latest hour (hover to see other rain measurements)
** Current wind speed in m/s (hover to see current wind gust speed)